Simultaneous Nadir Overpasses (SNOs) Predictions

Prediction of SNOs between METOP-A and NOAA-19 Satellite Orbit:

Table of predicted SNOs for the next 14.0 days since TLE Epoch: 9/7/2018
Index Date (METOP-A) Time (METOP-A) Lat,Lon (METOP-A) SZA (METOP-A ) Date (NOAA-19) Time (NOAA-19) Lat,Lon (NOAA-19) SZA (NOAA-19 ) Distance(km) Time Diff (sec)
1 09/16/2018 19:06:42 -78.89, 82.95 103.41 09/16/2018 19:05:38 -78.88, 82.95 103.42 0.07 64
2 09/16/2018 19:57:22 78.88,-109.75 76.61 09/16/2018 19:56:37 78.87,-109.67 76.59 2.29 45
3 09/16/2018 20:48:04 -78.86, 57.47 103.41 09/16/2018 20:47:39 -78.88, 57.46 103.39 2.06 25
4 09/16/2018 21:38:44 78.86,-135.23 76.61 09/16/2018 21:38:38 78.87,-135.16 76.62 1.71 6
5 09/16/2018 22:29:25 -78.88, 32.23 103.36 09/16/2018 22:29:39 -78.85, 32.23 103.39 3.68 14
6 09/16/2018 23:20:06 78.84,-160.71 76.61 09/16/2018 23:20:39 78.86,-160.65 76.64 3.24 33
7 09/17/2018 00:10:47 -78.86, 6.75 103.36 09/17/2018 00:11:40 -78.84, 6.74 103.36 1.58 53
8 09/17/2018 01:01:27 78.85, 174.06 76.65 09/17/2018 01:02:39 78.83, 174.11 76.64 3.01 72




NCC Satellite Simultaneous Nadir Overpasses (SNOs) Prediction Service
